CZ-4C R/B, 57655

Orbit data source: Space-Track

CZ-4C R/B, 57655 is space debris in SSO originally from a launch on Sun, 20 Aug 2023 UTC launched from the Jiuquan Satellite Launch Center, China (JSC). Debris objects in space refer to the collection of defunct objects orbiting the Earth. Examples of debris include non-operational satellites, rocket bodies, and fragments generated from explosions, collisions, or faulty payload assembly.

Loading next visibility...
Identifier
57655, 2023-123B
Orbit
SSO
Last TLE update
9 hours ago
Origin
Manufacturer
SAST
Mission
Spacecraft
Bus & Motor
CZ-4 STAGE 3, Unknown motor
Mass
~1,000 kg wet, ~1,000 kg dry
Launch date (UTC)
2023-08-20 (2 years ago)
Launch vehicle
Unknown
Launch site
Jiuquan Satellite Launch Center, China (JSC)
Object type
Payload
Rocket body
Debris
Shape & HBR
Cyl, 2.9 m
Radar Cross Section
7.676 m², Large (>1 m²)

Expand to show TLE details & history

TLE from 9 hours ago
0 CZ-4C R/B
1 57655U 23123B   25183.83340130  .00006574  00000-0  21984-3 0  9999
2 57655  97.9328 142.1463 0070125 224.1727 135.3900 15.29001086103512
Epoch: 2025-07-02T20:00Z
TLE epoch observation values (Epoch: 2025-07-02T20:00:05.872Z)
Latitude
0.00002°
Longitude
-78.987°
Altitude
516.288 km
Speed
7.586 km/s
True Right ascension
09h 28m 35s
True Declination
0° 00' 00"
Sunlit
Object was in daylight at epoch
Visualization orbit readout
Latitude
-81.05341°
Longitude
39.74312°
Altitude
471.596 km
Speed
7.649 km/s
Apparent Right ascension
04h 35m 58s
Apparent Declination
-70° 24' 52"
Sunlit
Object is in full shadow
Visualization observer readout
Local Sidereal Time
16:46:16
Azimuth
178.301° S
Elevation
-59.472°
Doppler factor
1
Orbital elements
Apogee altitude
523.837 km
Perigee altitude
427.711 km
Semi-major axis
6,853.911 km
Eccentricity
0.00701
Inclination
97.9328°
RAAN
142.1463°
Arg. of periapsis
224.1727°
True anomaly
Unknown
Mean anomaly
135.39°
Eccentric anomaly
Unknown
Mean motion
3.82504 °/min
Orbital period
94.12 mins
BSTAR
0.00021984
Loading maneuver chart data...
Loading SW <> Apogee altitude chart data...
Loading historical data...
Loading historical data...
Loading historical data...
Loading historical data...
Loading historical data...
Loading historical data...
Loading historical data...
Other satellites on launch #123 in the year 2023 (2023-08-20 UTC)

CZ-4C R/B Visibility forecast

Observer location: undefined°, undefined°

Span
Click to sort rows by Start time (UTC) header in descending order
Start Az.
Max El. time (UTC)
Max El. Az.
Max El.
End time (UTC)
End Az.
4 mins2025-07-03 10:42:49.556Z337.439° NNW2025-07-03 10:44:49.556Z282.79° WNW26.753°2025-07-03 10:46:49.556Z235.008° WSW
6 mins2025-07-03 21:15:49.556Z166.799° S2025-07-03 21:18:49.556Z342.582° N44.433°2025-07-03 21:21:49.556Z347.113° N
|